Location: Stoke Bliss
(52.2667°N, 2.5167°W)
Time: 14:06:49
(UTC+00:00)

SJ 16-02 - Pass Details

Date: 03 March 2021
Orbit: 605 x 617 km, 75.0° (Epoch: 13 April)

Event Time Altitude Azimuth Distance (km) Brightness Sun altitude
Rises 21:10:58 0° 330° (NNW) 2,885 5.7 -29.9°
Reaches altitude 10° 21:13:20 10° 322° (NW) 1,977 4.7 -30.2°
Enters shadow 21:16:33 33° 281° (W) 1,037 2.9 -30.6°
